OBJECT D

Satellite information

Favourite Embed

Satellite Type and Status

UNKNOWNIN ORBIT

Key statistics

Satellite OBJECT D at a glance.

Uptime

1386

Days in orbit

Revolutions

≈ 15.5

Per day

Orbit

SSO

Sun Synchronous Orbit

Inclination

97.4

Latest

Satellite identification and parameters

Extended collection of information and parameters for OBJECT D.

Object identification

Identified? True

Debris? False

Object name: OBJECT D

International designator: 2022-019D

Object number (NORAD): 51827

Object ID (CCSDS): 51827

Country: PEOPLES REPUBLIC OF CHINA (PRC)

Current information (Y/N): Y

RCS size: MEDIUM

Orbital parameters

Period: 92.857 minutes

Inclination: 97.3809 deg

SMA: 6792.609 km

Apoapsis: 419.851 km

Periapsis: 409.097 km

RAAN: 66.717 deg

Eccentricy: 0.0007916

Argument of periapsis: 98.6058 deg

Mean anomaly: 261.6091 deg

Mean motion: 15.50771527 rev/day

Mean motion (dot): 0.00048028 rev/day2

B* drag term: 0.00083085797 1/REarth

Two-line elements (TLE)

Creation date: Dec. 12, 2025, 10:14 a.m.

Reference frame: TEME

Reference center: EARTH

Epoch: Dec. 12, 2025, 7:49 a.m. UTC

TLE line 0: 0 OBJECT D

TLE line 1: 1 51827U 22019D 25346.32581479 .00048028 00000-0 83086-3 0 9996

TLE line 2: 2 51827 97.3809 66.7170 0007916 98.6058 261.6091 15.50771527210577

Live tracking on map

Real-time ground track for satellite OBJECT D.

In-orbit conjunctions

There are no conjunctions computed for OBJECT D, at the moment. Check back to stay up to date, as we update our databases every day.

Go to all conjunctions

Associated space launch

Carried 22 satellites to sun-synchronous orbit on a share-ride mission, including the Hainan-1 satellites.

OBJECT D was lifted into orbit during the mission ‘Long March 8 (Core Only) | Hainan-1 to 4 & others’, on board a Long March 8 (Core Only) space rocket.

The launch took place on Feb. 27, 2022, 3:06 a.m. from 201.

For more information about the launch, click the button.

Launch to space Long March 8 (Core Only) | Hainan-1 to 4 & others
Long March 8 (Core Only) | Hainan-1 to 4 & others

Agency: N/A

Status: Launch Successful

Launch date: Feb. 27, 2022, 3:06 a.m. UTC

Rocket: Long March 8 (Core Only)

Launch pad: 201

Location: Wenchang Space Launch Site, People's Republic of China

...

Latest news about this satellite

News about space launch
China launches new variant of Long March 8 rocket

Two recent launches from China set a new record for the largest number of satellites ever deployed by a Chinese rocket, and added a new radar imaging capability to the country’s remote sensing fleet.

News about space launch
China launches national record 22 satellites on Long March 8 commercial rideshare

China’s second Long March 8 rocket launched late Saturday carrying a domestic record 22 satellites for a range of commercial Chinese space companies.


Newsletter sign-up

Weekly statistics, charts and insights to help you stay on top of the space industry.